Cedar Rapids, IA

11:59 PM CDT on September 24, 2017 (GMT -0500)
The Eastern Iowa Airport

Weather History for KCID - September, 2013

Change the Weather History Date:

Wednesday, September 18, 2013

  Actual Average Record
Temperature  
Mean Temperature 75 °F 62 °F  
Max Temperature 89 °F 74 °F 94 °F (1972)
Min Temperature 61 °F 50 °F 32 °F (1929)
Degree Days  
Heating Degree Days 0 5  
Month to date heating degree days 33 52  
Since 1 July heating degree days 52 71  
Cooling Degree Days 10 2  
Month to date cooling degree days 124 57  
Year to date cooling degree days 844 725  
Growing Degree Days 24 (Base 50)    
Moisture  
Dew Point 63 °F    
Average Humidity 74    
Maximum Humidity 97    
Minimum Humidity 50    
Precipitation  
Precipitation 0.02 in 0.11 in 1.88 in (2015)
Month to date precipitation 0.90 1.98  
Year to date precipitation 30.30 27.28  
Sea Level Pressure  
Sea Level Pressure 29.92 in    
Wind  
Wind Speed 10 mph (SSE)    
Max Wind Speed 17 mph    
Max Gust Speed 23 mph    
Visibility 7 miles    
Events      
T = Trace of Precipitation, MM = Missing Value Source: NWS Daily Summary

Daily Weather History Graph

Daily Weather History Graph

Search for Another Location

Airport or City:

Trip Planner

Search our weather history database for the weather conditions in past years. The results will help you decide how hot, cold, wet, or windy it might be!

Date:

Astronomy

Sep. 18, 2013 Rise Set
Actual Time 6:50 AM CDT 7:10 PM CDT
Civil Twilight 6:22 AM CDT 7:38 PM CDT
Nautical Twilight 5:49 AM CDT 8:11 PM CDT
Astronomical Twilight 5:15 AM CDT 8:44 PM CDT
Moon 6:33 PM CDT (9/18) 5:53 AM CDT (9/18)
Length of Visible Light 13h 15m
Length of Day
12h 20m
Waxing Gibbous, 99% of the Moon is Illuminated
Sep 18
Waxing Gibbous
Sep 19
Full
Sep 26
Last Quarter
Oct 4
New
Oct 11
First Quarter

Hourly Weather History & Observations

Time (CDT) Temp. Heat Index Dew Point Humidity Pressure Visibility Wind Dir Wind Speed Gust Speed Precip Events Conditions
12:19 AM 64.4 °F - 57.2 °F 77% 30.04 in 8.0 mi South 10.4 mph - N/A   Overcast
12:52 AM 64.9 °F - 57.9 °F 78% 30.03 in 8.0 mi South 10.4 mph - N/A   Overcast
1:52 AM 64.0 °F - 60.1 °F 87% 30.03 in 6.0 mi South 9.2 mph - N/A   Overcast
2:02 AM 64.4 °F - 60.8 °F 88% 30.03 in 6.0 mi South 11.5 mph - N/A   Overcast
2:52 AM 64.0 °F - 61.0 °F 90% 30.01 in 5.0 mi South 6.9 mph - N/A   Overcast
3:52 AM 64.0 °F - 61.0 °F 90% 29.99 in 5.0 mi South 9.2 mph - N/A   Overcast
4:30 AM 62.6 °F - 60.8 °F 94% 29.98 in 5.0 mi SSE 6.9 mph - N/A   Mostly Cloudy
4:40 AM 62.6 °F - 60.8 °F 94% 29.98 in 5.0 mi SSE 5.8 mph - N/A   Scattered Clouds
4:52 AM 62.1 °F - 60.1 °F 93% 29.97 in 6.0 mi SSE 6.9 mph - N/A   Mostly Cloudy
5:52 AM 62.1 °F - 59.0 °F 90% 29.96 in 6.0 mi SSE 8.1 mph - N/A   Mostly Cloudy
6:52 AM 61.0 °F - 59.0 °F 93% 29.96 in 4.0 mi South 8.1 mph - N/A   Scattered Clouds
7:52 AM 64.0 °F - 61.0 °F 90% 29.94 in 4.0 mi SSE 11.5 mph - 0.01 in   Mostly Cloudy
8:50 AM 64.4 °F - 62.6 °F 94% 29.96 in 4.0 mi SSW 4.6 mph - 0.01 in   Overcast
8:52 AM 64.9 °F - 62.1 °F 90% 29.95 in 4.0 mi SSW 8.1 mph - 0.01 in   Overcast
9:11 AM 64.4 °F - 62.6 °F 94% 29.96 in 4.0 mi South 5.8 mph - N/A   Overcast
9:52 AM 66.0 °F - 63.0 °F 90% 29.96 in 4.0 mi SSE 4.6 mph - N/A   Overcast
10:41 AM 66.2 °F - 64.4 °F 94% 29.96 in 4.0 mi SE 8.1 mph - N/A   Overcast
10:52 AM 70.0 °F - 64.9 °F 84% 29.94 in 5.0 mi ESE 8.1 mph - N/A   Haze
11:52 AM 73.0 °F - 66.0 °F 79% 29.92 in 6.0 mi East 13.8 mph 18.4 mph N/A   Haze
12:52 PM 77.0 °F - 66.0 °F 69% 29.90 in 7.0 mi ESE 12.7 mph 18.4 mph N/A   Partly Cloudy
1:52 PM 82.0 °F 84.9 °F 68.0 °F 62% 29.87 in 8.0 mi SE 8.1 mph - N/A   Clear
2:52 PM 84.9 °F 88.2 °F 68.0 °F 57% 29.84 in 10.0 mi South 10.4 mph - N/A   Partly Cloudy
3:52 PM 87.1 °F 91.3 °F 69.1 °F 55% 29.82 in 10.0 mi South 10.4 mph - N/A   Partly Cloudy
4:52 PM 88.0 °F 90.3 °F 66.0 °F 48% 29.80 in 10.0 mi SSW 15.0 mph - N/A   Clear
5:52 PM 86.0 °F 88.2 °F 66.0 °F 51% 29.80 in 10.0 mi South 9.2 mph 19.6 mph N/A   Clear
6:52 PM 82.9 °F 85.0 °F 66.0 °F 56% 29.80 in 10.0 mi South 10.4 mph - N/A   Clear
7:52 PM 80.1 °F 82.1 °F 66.0 °F 62% 29.81 in 10.0 mi South 9.2 mph - N/A   Partly Cloudy
8:52 PM 79.0 °F - 66.0 °F 64% 29.83 in 10.0 mi South 9.2 mph - N/A   Scattered Clouds
9:52 PM 77.0 °F - 66.0 °F 69% 29.84 in 10.0 mi South 9.2 mph - N/A   Clear
10:52 PM 75.9 °F - 66.0 °F 71% 29.84 in 10.0 mi South 10.4 mph - N/A   Clear
11:52 PM 75.0 °F - 66.0 °F 73% 29.83 in 10.0 mi South 10.4 mph - N/A   Clear